SCP
0 -0 -0 -0 0 -0 0 0 -0 0 0 -0 0 -0 -0 0 0 -0 -0 -0 0 0 0 0 0 0 0 1 1 2 2 5 4 3 2 3 3 2 1 0 0 0 0 0
0 0 0 -0 0 0 0 0 0 0 0 0 0 0 0 0 0 0 0 0 0 0 0 2 4 3 2 3 4 5 5 5 4 5 3 3 1 3 0 0 0 0 0 0
-0 -0 0 0 0 0 -0 -0 -0 -0 0 0 -0 -0 0 0 0 0 0 0 0 1 2 2 1 2 2 3 3 3 5 4 4 4 3 2 1 0 0 0 0 0 0 0
0 0 0 0 0 0 0 0 -0 -0 -0 0 0 0 -0 0 0 0 0 0 0 0 1 2 1 1 1 1 1 1 1 1 1 1 1 1 1 0 0 0 0 0 0 0
0 0 0 0 0 0 0 0 0 -0 -0 -0 0 0 0 0 0 0 0 0 0 0 1 1 0 0 0 0 0 0 0 0 0 0 0 0 0 0 0 0 0 0 0 0
-0 0 0 0 0 0 0 0 0 0 0 0 0 0 -0 0 0 0 0 0 0 0 0 0 0 0 0 0 0 0 0 0 0 0 0 0 0 0 0 0 0 0 0 0
0 0 0 0 0 0 0 0 0 0 0 0 -0 0 0 0 0 0 0 0 0 0 0 0 0 0 0 0 0 0 0 0 0 0 0 0 0 0 0 0 0 0 0 0
0 0 0 0 -0 0 0 -0 -0 0 -0 -0 0 0 0 0 0 0 0 0 0 0 0 0 0 0 0 0 0 0 0 0 0 0 0 0 0 0 0 0 0 0 0 0
0 0 0 0 0 -0 0 0 -0 0 0 0 -0 0 0 0 0 0 0 0 0 0 0 0 0 0 0 0 0 0 0 0 0 0 0 0 0 0 0 0 0 0 0 0
0 0 0 0 0 0 -0 0 0 0 0 0 0 0 0 0 0 0 0 0 0 0 0 0 0 0 0 0 0 0 0 0 0 0 0 0 0 0 0 0 0 0 0 0
-0 0 0 0 0 0 0 0 0 0 0 0 0 0 0 0 0 0 0 0 0 0 0 0 0 0 0 0 0 0 0 0 0 0 0 0 0 0 0 0 0 0 0 0
0 0 0 0 0 -0 0 0 0 0 0 0 0 0 0 0 0 0 0 0 0 0 0 0 0 0 0 0 0 0 0 0 0 0 0 0 0 0 0 0 0 0 0 0
0 0 0 0 0 0 0 0 0 0 0 0 0 0 0 0 0 0 0 0 0 0 0 0 0 0 0 0 0 0 0 0 0 0 0 0 0 0 0 0 0 0 0 0
0 0 0 0 0 0 0 0 0 0 0 0 0 0 0 0 0 0 0 0 0 0 0 0 0 0 0 0 0 0 0 0 0 0 0 0 0 0 0 0 0 0 0 0
0 0 0 0 0 0 0 0 0 0 0 -0 0 0 0 0 0 0 0 0 0 0 0 0 0 0 0 0 0 0 0 0 0 0 0 0 0 0 0 0 0 0 0 0
0 0 0 0 0 0 0 0 0 0 0 0 0 0 0 0 0 0 0 0 1 0 0 0 0 0 0 0 0 0 0 0 0 0 0 0 0 0 0 0 0 0 0 0
0 0 0 0 0 0 0 0 0 0 0 0 0 0 0 0 0 0 0 0 1 1 0 0 0 0 0 0 0 0 0 0 0 0 0 0 0 0 0 0 0 0 0 0
0 0 0 0 0 0 0 0 0 0 0 0 0 0 0 0 1 0 0 0 1 0 0 0 0 0 0 0 0 0 0 0 0 0 0 0 0 0 0 0 0 0 0 0
0 0 0 0 0 0 0 0 0 0 0 0 0 0 0 0 0 0 0 1 0 0 0 0 0 0 0 0 0 0 0 0 0 0 0 0 0 0 0 0 0 0 0 0
0 0 0 0 0 -0 0 0 0 0 0 0 0 0 0 0 0 1 0 0 0 0 0 0 0 0 0 0 0 0 0 0 0 0 0 0 0 0 0 0 0 0 0 0
0 0 0 0 0 0 0 0 0 0 0 0 0 0 0 0 1 0 0 0 0 0 0 0 0 0 0 0 0 0 0 0 0 0 0 0 0 0 0 0 0 0 0 0
0 0 0 0 0 0 0 0 0 0 0 0 0 0 1 0 0 0 0 0 0 0 0 0 0 0 0 0 0 0 0 0 0 0 0 0 0 0 0 0 0 0 0 0
0 0 0 0 0 1 0 0 1 0 0 0 0 0 0 0 0 0 0 0 0 0 0 0 0 0 0 0 0 0 0 0 0 0 0 0 0 0 0 0 0 0 0 0
0 0 0 0 0 0 0 0 0 0 0 0 0 0 0 0 0 0 0 0 0 0 0 0 0 0 0 0 0 0 0 0 0 0 0 0 0 0 0 0 0 0 0 0
0 0 0 0 0 0 0 0 0 0 0 0 0 0 0 0 0 0 0 0 0 0 0 0 0 0 0 0 0 0 0 0 0 0 0 0 0 0 0 0 0 0 0 0
0 0 0 0 0 0 0 0 0 0 0 0 0 0 0 0 0 0 0 0 0 0 0 0 0 0 0 0 0 0 0 0 0 0 0 0 0 0 0 0 0 0 0 0
Wind_Speed_500mb
38 26 30 36 33 36 20 24 32 13 19 23 31 34 30 19 29 32 38 42 41 38 32 31 36 33 30 27 31 31 32 38 35 34 40 42 38 26 25 30 33 34 40 46
27 34 34 30 10 15 22 27 27 15 18 17 31 32 23 28 9 24 22 24 32 24 36 21 18 17 20 24 22 17 21 37 33 32 23 21 16 27 19 19 32 39 41 54
40 22 41 15 19 26 29 30 29 28 24 25 37 36 27 17 18 14 3 11 20 20 7 19 12 11 8 8 8 17 25 24 24 21 28 32 40 33 21 27 36 42 45 44
37 39 17 22 29 27 30 31 31 27 27 23 41 27 45 31 19 15 11 10 8 8 7 11 18 12 11 9 9 18 24 22 19 21 13 15 14 24 30 33 36 39 41 37
36 34 31 30 32 28 27 15 23 31 28 30 25 16 8 26 30 24 15 15 13 11 19 19 16 15 14 14 13 16 16 21 23 29 28 18 25 14 29 30 31 38 33 22
39 29 26 32 29 27 18 15 23 28 28 29 38 24 25 30 25 25 24 23 19 21 23 24 24 24 23 21 20 19 16 13 16 17 20 13 15 16 13 25 20 19 18 21
33 41 26 30 33 24 22 24 17 18 23 27 33 30 7 17 12 23 31 25 21 23 25 26 26 25 23 21 18 15 13 9 7 5 7 8 11 13 12 16 15 22 18 20
31 33 41 28 37 32 34 32 22 18 22 27 23 19 13 25 28 26 26 25 24 24 25 26 24 24 21 19 17 16 16 14 6 2 6 11 12 12 12 18 20 19 21 24
34 36 32 43 36 36 36 32 35 30 32 19 25 19 19 29 27 25 27 26 25 27 27 26 25 22 21 19 18 16 14 10 4 7 12 14 16 18 17 17 20 19 23 26
29 19 29 34 37 42 43 19 24 17 25 27 27 26 13 34 33 29 28 27 28 26 26 25 25 24 20 19 18 16 13 8 5 4 5 8 13 14 16 17 21 25 28 30
38 20 26 25 33 41 28 30 26 25 20 21 23 1 25 23 27 30 32 33 31 30 28 27 23 22 20 18 14 13 10 8 5 8 8 14 10 13 15 18 23 28 31 28
41 19 24 35 33 37 41 40 35 22 29 19 19 23 7 6 22 28 30 32 31 28 27 26 24 22 21 18 15 13 8 4 2 10 8 11 12 15 15 20 24 29 29 28
38 22 24 29 19 14 23 27 31 33 27 32 22 19 12 17 22 24 25 31 29 29 30 28 25 22 20 18 15 11 8 4 9 11 14 13 14 15 17 19 23 26 29 29
41 25 33 29 34 34 36 36 32 27 20 27 29 23 28 25 24 25 17 32 30 30 31 29 26 23 21 17 14 12 7 5 13 16 11 12 14 16 16 19 22 24 28 30
29 37 34 40 42 30 26 39 39 33 33 32 13 1 5 9 15 19 25 21 28 28 30 30 26 23 21 18 14 11 8 15 14 7 10 13 16 18 18 19 21 24 27 28
32 27 38 42 39 38 28 29 38 38 35 32 20 12 18 32 5 2 13 31 27 27 28 27 25 23 21 18 14 12 10 7 9 7 9 14 17 19 19 20 21 24 27 27
34 31 32 39 39 26 38 36 31 29 30 27 20 5 16 14 6 3 10 9 23 26 26 26 24 22 20 18 16 9 5 8 5 8 11 15 17 19 21 21 24 25 28 27
36 36 27 29 30 37 26 21 36 28 22 15 10 16 5 10 13 5 3 8 17 21 23 24 23 22 20 18 12 6 6 4 6 9 12 15 18 19 23 23 25 28 28 28
30 33 27 26 25 16 3 13 20 18 18 11 8 9 7 12 19 16 12 15 20 22 23 23 23 23 21 16 10 4 3 5 6 10 12 15 17 21 23 23 26 27 27 28
26 29 29 21 20 41 17 32 28 22 20 29 30 13 13 19 22 19 19 23 26 27 27 28 27 25 21 13 3 10 2 3 7 10 13 15 18 21 23 24 26 27 28 29
28 26 30 23 23 11 29 9 7 23 8 20 10 11 12 11 21 31 26 26 27 28 30 30 27 23 18 10 8 6 1 5 10 10 12 16 20 23 22 26 27 28 31 32
37 29 28 27 31 19 41 36 31 19 26 21 13 16 30 31 31 29 27 28 30 32 31 27 25 20 12 11 8 4 1 7 10 9 12 17 20 22 23 26 27 29 30 34
28 30 25 8 11 31 19 13 25 19 18 17 17 14 29 26 26 27 27 28 29 30 29 25 21 21 16 9 8 10 3 6 8 11 15 19 21 21 26 26 27 30 31 32
20 8 11 14 18 29 25 20 23 17 13 15 20 17 24 25 26 26 28 29 31 29 25 22 21 17 13 7 4 3 3 8 10 14 17 19 20 24 24 26 26 28 30 29
12 25 22 15 21 29 21 22 22 19 18 16 19 21 22 26 26 28 30 30 27 26 23 21 19 14 10 9 5 3 4 7 11 16 16 18 22 23 27 26 29 29 30 35
3 6 16 6 40 21 27 21 16 18 20 21 24 25 24 25 29 29 29 28 27 24 23 22 16 14 10 6 3 4 5 5 10 14 16 21 21 23 26 28 29 34 32 33
Wind_Direction_500mb
204 221 221 230 227 260 326 287 248 199 159 216 234 214 246 215 199 236 229 234 223 213 201 208 197 217 224 217 223 218 220 220 208 216 221 227 235 229 228 260 272 282 288 300
205 228 245 236 300 272 255 261 265 250 168 198 253 246 251 257 198 260 285 297 360 328 169 133 123 192 219 226 218 209 210 227 216 218 217 226 231 216 242 253 275 284 302 310
229 237 214 222 216 238 240 243 242 252 209 206 256 259 242 158 247 232 40 346 10 11 26 126 142 158 177 196 203 223 201 227 218 225 236 239 229 269 257 273 276 302 310 315
223 245 194 233 234 224 245 224 254 251 249 234 205 251 225 166 180 192 146 94 51 21 167 139 140 136 136 141 153 222 214 224 252 242 250 219 235 237 225 260 292 304 311 321
223 229 196 228 224 228 250 332 211 243 245 253 218 247 246 153 179 147 107 91 91 97 112 127 137 129 122 118 121 118 130 149 170 190 188 212 236 269 275 286 305 320 331 322
239 206 238 223 232 236 237 227 242 243 240 236 243 253 234 189 186 122 119 116 114 117 120 122 118 116 112 109 112 122 164 196 209 216 217 243 269 267 268 303 341 319 319 317
215 243 208 236 221 185 220 217 214 214 228 239 222 220 240 93 85 112 134 130 131 129 124 120 118 119 119 119 118 114 118 127 145 183 229 256 289 318 348 331 326 334 316 315
211 214 213 202 228 192 214 221 243 216 213 230 145 208 207 117 115 125 130 132 136 133 128 126 127 126 126 125 120 114 111 109 125 174 302 318 337 323 340 325 335 337 325 322
213 233 212 200 213 241 207 215 245 284 282 282 185 119 136 148 138 151 153 151 143 141 138 135 135 135 133 130 125 123 120 116 96 354 356 349 337 344 338 340 340 321 327 317
243 245 194 205 210 222 247 203 231 232 258 253 248 245 205 170 169 176 174 172 158 153 147 145 143 143 141 140 132 126 124 113 75 18 10 1 354 346 341 340 341 337 330 325
228 224 206 205 203 221 204 233 236 251 239 232 250 276 79 168 179 181 187 176 168 164 159 156 155 151 149 143 145 133 121 101 54 354 344 342 334 337 346 341 344 340 337 333
213 210 245 204 216 227 211 214 230 233 233 256 280 282 89 146 161 175 188 169 167 167 163 163 162 161 158 159 152 147 134 113 94 324 336 316 337 1 330 334 345 346 344 343
202 210 225 227 181 216 238 240 222 233 238 267 262 238 141 162 152 175 184 161 166 171 168 168 169 171 171 169 162 154 137 190 292 321 316 326 349 334 337 338 343 345 343 346
212 208 223 225 205 197 206 237 232 233 229 237 240 243 167 177 175 171 197 162 178 182 176 176 177 179 176 179 175 164 170 276 309 319 331 339 324 320 327 329 339 338 343 348
206 219 224 238 262 259 220 202 226 223 227 249 256 131 239 261 188 192 189 190 182 188 183 183 183 184 182 180 178 174 206 302 315 327 321 306 325 325 317 312 326 337 341 344
202 217 230 237 233 243 254 214 217 217 228 236 253 258 93 127 112 270 245 188 193 198 193 189 188 187 186 187 186 186 274 324 304 316 336 315 318 323 320 315 319 329 330 334
195 215 220 232 235 213 243 240 226 215 221 243 242 304 86 143 153 210 261 228 196 200 195 191 189 186 186 186 189 216 275 317 334 341 319 317 317 322 318 319 316 316 320 325
202 212 222 230 229 226 236 246 227 214 232 222 212 165 140 49 81 113 263 196 184 179 182 182 181 178 179 176 177 228 293 338 13 315 314 315 313 315 315 318 318 311 311 318
207 213 219 226 194 200 296 183 173 208 216 227 241 158 156 129 145 100 94 120 144 156 163 168 171 171 166 164 180 277 55 44 314 312 307 309 316 318 318 316 316 314 312 316
210 226 230 237 163 238 191 172 188 174 227 193 193 217 176 182 234 105 110 116 125 135 146 153 156 157 157 165 161 82 190 272 306 300 302 311 315 318 316 316 319 321 319 320
206 210 224 225 243 295 136 99 85 201 122 95 133 166 162 98 85 126 125 123 129 135 141 148 147 148 156 165 139 138 67 299 302 310 310 317 316 314 319 314 316 321 321 317
201 208 222 224 249 216 148 165 203 98 114 120 132 128 104 117 124 128 132 132 133 138 141 141 145 148 147 136 132 147 299 336 325 315 322 317 316 320 314 317 320 322 324 321
223 211 219 266 268 113 168 174 115 132 133 134 139 136 136 143 139 140 139 140 143 142 146 150 142 141 151 155 136 75 332 345 333 327 319 321 318 317 321 323 324 325 328 329
163 227 198 119 141 150 141 131 137 149 148 141 135 146 152 150 149 145 146 147 147 153 147 151 154 149 157 161 145 187 320 324 335 325 321 320 324 319 324 324 325 321 325 333
324 169 184 153 164 130 155 135 114 122 138 150 146 149 149 151 150 151 151 153 155 153 157 155 158 156 152 163 179 206 284 329 330 329 331 331 326 328 326 326 318 318 316 328
260 51 213 171 170 192 145 134 139 147 153 156 148 140 143 148 149 151 152 155 157 158 159 156 153 159 167 169 209 245 290 314 329 346 326 325 327 330 329 327 329 325 325 328
Wind_Speed_850mb
38 26 30 36 33 36 20 24 32 13 19 23 31 34 30 19 29 32 38 42 41 38 32 31 36 33 30 27 31 31 32 38 35 34 40 42 38 26 25 30 33 34 40 46
27 34 34 30 10 15 22 27 27 15 18 17 31 32 23 28 9 24 22 24 32 24 36 21 18 17 20 24 22 17 21 37 33 32 23 21 16 27 19 19 32 39 41 54
40 22 41 15 19 26 29 30 29 28 24 25 37 36 27 17 18 14 3 11 20 20 7 19 12 11 8 8 8 17 25 24 24 21 28 32 40 33 21 27 36 42 45 44
37 39 17 22 29 27 30 31 31 27 27 23 41 27 45 31 19 15 11 10 8 8 7 11 18 12 11 9 9 18 24 22 19 21 13 15 14 24 30 33 36 39 41 37
36 34 31 30 32 28 27 15 23 31 28 30 25 16 8 26 30 24 15 15 13 11 19 19 16 15 14 14 13 16 16 21 23 29 28 18 25 14 29 30 31 38 33 22
39 29 26 32 29 27 18 15 23 28 28 29 38 24 25 30 25 25 24 23 19 21 23 24 24 24 23 21 20 19 16 13 16 17 20 13 15 16 13 25 20 19 18 21
33 41 26 30 33 24 22 24 17 18 23 27 33 30 7 17 12 23 31 25 21 23 25 26 26 25 23 21 18 15 13 9 7 5 7 8 11 13 12 16 15 22 18 20
31 33 41 28 37 32 34 32 22 18 22 27 23 19 13 25 28 26 26 25 24 24 25 26 24 24 21 19 17 16 16 14 6 2 6 11 12 12 12 18 20 19 21 24
34 36 32 43 36 36 36 32 35 30 32 19 25 19 19 29 27 25 27 26 25 27 27 26 25 22 21 19 18 16 14 10 4 7 12 14 16 18 17 17 20 19 23 26
29 19 29 34 37 42 43 19 24 17 25 27 27 26 13 34 33 29 28 27 28 26 26 25 25 24 20 19 18 16 13 8 5 4 5 8 13 14 16 17 21 25 28 30
38 20 26 25 33 41 28 30 26 25 20 21 23 1 25 23 27 30 32 33 31 30 28 27 23 22 20 18 14 13 10 8 5 8 8 14 10 13 15 18 23 28 31 28
41 19 24 35 33 37 41 40 35 22 29 19 19 23 7 6 22 28 30 32 31 28 27 26 24 22 21 18 15 13 8 4 2 10 8 11 12 15 15 20 24 29 29 28
38 22 24 29 19 14 23 27 31 33 27 32 22 19 12 17 22 24 25 31 29 29 30 28 25 22 20 18 15 11 8 4 9 11 14 13 14 15 17 19 23 26 29 29
41 25 33 29 34 34 36 36 32 27 20 27 29 23 28 25 24 25 17 32 30 30 31 29 26 23 21 17 14 12 7 5 13 16 11 12 14 16 16 19 22 24 28 30
29 37 34 40 42 30 26 39 39 33 33 32 13 1 5 9 15 19 25 21 28 28 30 30 26 23 21 18 14 11 8 15 14 7 10 13 16 18 18 19 21 24 27 28
32 27 38 42 39 38 28 29 38 38 35 32 20 12 18 32 5 2 13 31 27 27 28 27 25 23 21 18 14 12 10 7 9 7 9 14 17 19 19 20 21 24 27 27
34 31 32 39 39 26 38 36 31 29 30 27 20 5 16 14 6 3 10 9 23 26 26 26 24 22 20 18 16 9 5 8 5 8 11 15 17 19 21 21 24 25 28 27
36 36 27 29 30 37 26 21 36 28 22 15 10 16 5 10 13 5 3 8 17 21 23 24 23 22 20 18 12 6 6 4 6 9 12 15 18 19 23 23 25 28 28 28
30 33 27 26 25 16 3 13 20 18 18 11 8 9 7 12 19 16 12 15 20 22 23 23 23 23 21 16 10 4 3 5 6 10 12 15 17 21 23 23 26 27 27 28
26 29 29 21 20 41 17 32 28 22 20 29 30 13 13 19 22 19 19 23 26 27 27 28 27 25 21 13 3 10 2 3 7 10 13 15 18 21 23 24 26 27 28 29
28 26 30 23 23 11 29 9 7 23 8 20 10 11 12 11 21 31 26 26 27 28 30 30 27 23 18 10 8 6 1 5 10 10 12 16 20 23 22 26 27 28 31 32
37 29 28 27 31 19 41 36 31 19 26 21 13 16 30 31 31 29 27 28 30 32 31 27 25 20 12 11 8 4 1 7 10 9 12 17 20 22 23 26 27 29 30 34
28 30 25 8 11 31 19 13 25 19 18 17 17 14 29 26 26 27 27 28 29 30 29 25 21 21 16 9 8 10 3 6 8 11 15 19 21 21 26 26 27 30 31 32
20 8 11 14 18 29 25 20 23 17 13 15 20 17 24 25 26 26 28 29 31 29 25 22 21 17 13 7 4 3 3 8 10 14 17 19 20 24 24 26 26 28 30 29
12 25 22 15 21 29 21 22 22 19 18 16 19 21 22 26 26 28 30 30 27 26 23 21 19 14 10 9 5 3 4 7 11 16 16 18 22 23 27 26 29 29 30 35
3 6 16 6 40 21 27 21 16 18 20 21 24 25 24 25 29 29 29 28 27 24 23 22 16 14 10 6 3 4 5 5 10 14 16 21 21 23 26 28 29 34 32 33
Wind_Direction_850mb
204 221 221 230 227 260 326 287 248 199 159 216 234 214 246 215 199 236 229 234 223 213 201 208 197 217 224 217 223 218 220 220 208 216 221 227 235 229 228 260 272 282 288 300
205 228 245 236 300 272 255 261 265 250 168 198 253 246 251 257 198 260 285 297 360 328 169 133 123 192 219 226 218 209 210 227 216 218 217 226 231 216 242 253 275 284 302 310
229 237 214 222 216 238 240 243 242 252 209 206 256 259 242 158 247 232 40 346 10 11 26 126 142 158 177 196 203 223 201 227 218 225 236 239 229 269 257 273 276 302 310 315
223 245 194 233 234 224 245 224 254 251 249 234 205 251 225 166 180 192 146 94 51 21 167 139 140 136 136 141 153 222 214 224 252 242 250 219 235 237 225 260 292 304 311 321
223 229 196 228 224 228 250 332 211 243 245 253 218 247 246 153 179 147 107 91 91 97 112 127 137 129 122 118 121 118 130 149 170 190 188 212 236 269 275 286 305 320 331 322
239 206 238 223 232 236 237 227 242 243 240 236 243 253 234 189 186 122 119 116 114 117 120 122 118 116 112 109 112 122 164 196 209 216 217 243 269 267 268 303 341 319 319 317
215 243 208 236 221 185 220 217 214 214 228 239 222 220 240 93 85 112 134 130 131 129 124 120 118 119 119 119 118 114 118 127 145 183 229 256 289 318 348 331 326 334 316 315
211 214 213 202 228 192 214 221 243 216 213 230 145 208 207 117 115 125 130 132 136 133 128 126 127 126 126 125 120 114 111 109 125 174 302 318 337 323 340 325 335 337 325 322
213 233 212 200 213 241 207 215 245 284 282 282 185 119 136 148 138 151 153 151 143 141 138 135 135 135 133 130 125 123 120 116 96 354 356 349 337 344 338 340 340 321 327 317
243 245 194 205 210 222 247 203 231 232 258 253 248 245 205 170 169 176 174 172 158 153 147 145 143 143 141 140 132 126 124 113 75 18 10 1 354 346 341 340 341 337 330 325
228 224 206 205 203 221 204 233 236 251 239 232 250 276 79 168 179 181 187 176 168 164 159 156 155 151 149 143 145 133 121 101 54 354 344 342 334 337 346 341 344 340 337 333
213 210 245 204 216 227 211 214 230 233 233 256 280 282 89 146 161 175 188 169 167 167 163 163 162 161 158 159 152 147 134 113 94 324 336 316 337 1 330 334 345 346 344 343
202 210 225 227 181 216 238 240 222 233 238 267 262 238 141 162 152 175 184 161 166 171 168 168 169 171 171 169 162 154 137 190 292 321 316 326 349 334 337 338 343 345 343 346
212 208 223 225 205 197 206 237 232 233 229 237 240 243 167 177 175 171 197 162 178 182 176 176 177 179 176 179 175 164 170 276 309 319 331 339 324 320 327 329 339 338 343 348
206 219 224 238 262 259 220 202 226 223 227 249 256 131 239 261 188 192 189 190 182 188 183 183 183 184 182 180 178 174 206 302 315 327 321 306 325 325 317 312 326 337 341 344
202 217 230 237 233 243 254 214 217 217 228 236 253 258 93 127 112 270 245 188 193 198 193 189 188 187 186 187 186 186 274 324 304 316 336 315 318 323 320 315 319 329 330 334
195 215 220 232 235 213 243 240 226 215 221 243 242 304 86 143 153 210 261 228 196 200 195 191 189 186 186 186 189 216 275 317 334 341 319 317 317 322 318 319 316 316 320 325
202 212 222 230 229 226 236 246 227 214 232 222 212 165 140 49 81 113 263 196 184 179 182 182 181 178 179 176 177 228 293 338 13 315 314 315 313 315 315 318 318 311 311 318
207 213 219 226 194 200 296 183 173 208 216 227 241 158 156 129 145 100 94 120 144 156 163 168 171 171 166 164 180 277 55 44 314 312 307 309 316 318 318 316 316 314 312 316
210 226 230 237 163 238 191 172 188 174 227 193 193 217 176 182 234 105 110 116 125 135 146 153 156 157 157 165 161 82 190 272 306 300 302 311 315 318 316 316 319 321 319 320
206 210 224 225 243 295 136 99 85 201 122 95 133 166 162 98 85 126 125 123 129 135 141 148 147 148 156 165 139 138 67 299 302 310 310 317 316 314 319 314 316 321 321 317
201 208 222 224 249 216 148 165 203 98 114 120 132 128 104 117 124 128 132 132 133 138 141 141 145 148 147 136 132 147 299 336 325 315 322 317 316 320 314 317 320 322 324 321
223 211 219 266 268 113 168 174 115 132 133 134 139 136 136 143 139 140 139 140 143 142 146 150 142 141 151 155 136 75 332 345 333 327 319 321 318 317 321 323 324 325 328 329
163 227 198 119 141 150 141 131 137 149 148 141 135 146 152 150 149 145 146 147 147 153 147 151 154 149 157 161 145 187 320 324 335 325 321 320 324 319 324 324 325 321 325 333
324 169 184 153 164 130 155 135 114 122 138 150 146 149 149 151 150 151 151 153 155 153 157 155 158 156 152 163 179 206 284 329 330 329 331 331 326 328 326 326 318 318 316 328
260 51 213 171 170 192 145 134 139 147 153 156 148 140 143 148 149 151 152 155 157 158 159 156 153 159 167 169 209 245 290 314 329 346 326 325 327 330 329 327 329 325 325 328